Weather History for KMCI - February, 2013

Change the Weather History Date:

Monday, February 25, 2013

  Actual Average Record
Temperature  
Mean Temperature 32 °F 37 °F  
Max Temperature 36 °F 47 °F 77 °F (1995)
Min Temperature 27 °F 27 °F 0 °F (2003)
Degree Days  
Heating Degree Days 33 28  
Month to date heating degree days 804 800  
Since 1 July heating degree days 3631 3964  
Cooling Degree Days 0 0  
Month to date cooling degree days 0 0  
Year to date cooling degree days 0 0  
Moisture  
Dew Point 27 °F    
Average Humidity 80    
Maximum Humidity 96    
Minimum Humidity 63    
Precipitation  
Precipitation 0.27 in 0.06 in 1.03 in (1899)
Month to date precipitation 1.34 1.29  
Year to date precipitation 2.37 2.36  
Snow  
Snow 1.50 in 0.20 in 10.50 in (1993)
Month to date snowfall 11.0 5.0  
Since 1 July snowfall 15.7 15.8  
Snow Depth 5.00 in    
Sea Level Pressure  
Sea Level Pressure 29.88 in    
Wind  
Wind Speed 14 mph (NE)    
Max Wind Speed 25 mph    
Max Gust Speed 31 mph    
Visibility 6 miles    
Events Fog , Snow    
T = Trace of Precipitation, MM = Missing Value Source: NWS Daily Summary

Daily Weather History Graph

Daily Weather History Graph

Search for Another Location

Airport or City:

Trip Planner

Search our weather history database for the weather conditions in past years. The results will help you decide how hot, cold, wet, or windy it might be!

Date:

Astronomy

Feb. 25, 2013 Rise Set
Actual Time 6:57 AM CST 6:07 PM CST
Civil Twilight 6:30 AM CST 6:34 PM CST
Nautical Twilight 5:58 AM CST 7:05 PM CST
Astronomical Twilight 5:27 AM CST 7:36 PM CST
Moon 6:21 PM CST (2/25) 6:27 AM CST (2/25)
Length of Visible Light 12h 04m
Length of Day
11h 10m
Full, 100% of the Moon is Illuminated
Feb 25
Full
Feb 25
Full
Mar 4
Last Quarter
Mar 11
New
Mar 19
First Quarter

Hourly Weather History & Observations

Time (CST) Temp. Windchill Dew Point Humidity Pressure Visibility Wind Dir Wind Speed Gust Speed Precip Events Conditions
12:53 AM 32.0 °F 23.6 °F 21.9 °F 66% 29.98 in 10.0 mi ENE 10.4 mph - N/A   Mostly Cloudy
1:53 AM 32.0 °F 23.0 °F 23.0 °F 69% 29.98 in 10.0 mi ENE 11.5 mph - N/A   Overcast
2:53 AM 32.0 °F 23.6 °F 21.9 °F 66% 29.99 in 10.0 mi ENE 10.4 mph - N/A   Mostly Cloudy
3:53 AM 30.0 °F 21.7 °F 21.9 °F 72% 29.97 in 10.0 mi ENE 9.2 mph - N/A   Overcast
4:53 AM 28.9 °F 19.8 °F 21.0 °F 72% 29.96 in 10.0 mi NE 10.4 mph - N/A   Overcast
5:53 AM 28.9 °F 20.4 °F 21.9 °F 75% 29.98 in 10.0 mi NE 9.2 mph - N/A   Mostly Cloudy
6:53 AM 27.0 °F 18.0 °F 21.0 °F 78% 29.99 in 10.0 mi NNE 9.2 mph - N/A   Overcast
7:53 AM 28.0 °F 18.1 °F 21.9 °F 78% 29.99 in 8.0 mi NNE 11.5 mph - N/A   Overcast
8:53 AM 30.0 °F 20.0 °F 23.0 °F 75% 29.97 in 7.0 mi NE 12.7 mph - N/A   Overcast
9:53 AM 32.0 °F 24.8 °F 24.1 °F 73% 29.98 in 8.0 mi NE 8.1 mph - N/A   Overcast
10:53 AM 33.1 °F 23.9 °F 25.0 °F 72% 29.97 in 8.0 mi NNE 12.7 mph - N/A   Overcast
11:53 AM 35.1 °F 26.9 °F 26.1 °F 70% 29.96 in 8.0 mi NNE 11.5 mph - N/A   Overcast
12:53 PM 35.1 °F 25.9 °F 26.1 °F 70% 29.92 in 8.0 mi NNE 13.8 mph - N/A   Overcast
1:53 PM 36.0 °F 26.7 °F 26.1 °F 67% 29.89 in 9.0 mi NNE 15.0 mph - N/A   Overcast
2:53 PM 35.1 °F 26.4 °F 27.0 °F 72% 29.88 in 9.0 mi North 12.7 mph - N/A   Overcast
3:53 PM 36.0 °F 27.5 °F 27.0 °F 70% 29.89 in 9.0 mi NNE 12.7 mph - N/A   Overcast
4:28 PM 35.6 °F 27.1 °F 26.6 °F 70% 29.88 in 2.0 mi NE 12.7 mph - 0.00 in Snow Light Snow
4:35 PM 33.8 °F 24.3 °F 28.4 °F 81% 29.87 in 0.5 mi ENE 13.8 mph 26.5 mph 0.00 in Snow Light Snow
4:53 PM 33.1 °F 22.2 °F 30.0 °F 89% 29.86 in 0.5 mi NE 17.3 mph - 0.02 in Snow Light Snow
4:59 PM 33.8 °F 23.5 °F 30.2 °F 87% 29.84 in 2.5 mi NE 16.1 mph - 0.00 in Snow Light Snow
5:20 PM 33.8 °F 24.3 °F 28.4 °F 81% 29.83 in 0.5 mi ENE 13.8 mph - 0.00 in Snow Light Snow
5:53 PM 33.1 °F 22.6 °F 30.0 °F 89% 29.85 in 0.5 mi NE 16.1 mph - 0.03 in Snow Light Snow
6:10 PM 33.8 °F 23.5 °F 30.2 °F 87% 29.82 in 0.5 mi NE 16.1 mph - 0.00 in Snow Light Snow
6:28 PM 33.8 °F 21.9 °F 30.2 °F 87% 29.79 in 3.0 mi NE 21.9 mph - 0.00 in   Overcast
6:53 PM 34.0 °F 21.5 °F 30.0 °F 85% 29.79 in 6.0 mi NNE 24.2 mph 31.1 mph 0.00 in   Overcast
7:53 PM 35.1 °F 23.8 °F 30.0 °F 82% 29.76 in 8.0 mi NNE 20.7 mph - N/A   Overcast
8:53 PM 35.1 °F 26.4 °F 28.9 °F 78% 29.83 in 5.0 mi NE 12.7 mph - 0.01 in Snow Light Snow
9:53 PM 35.1 °F 24.5 °F 28.9 °F 78% 29.79 in 2.5 mi NE 18.4 mph 24.2 mph 0.02 in Snow Light Snow
10:19 PM 35.6 °F 24.2 °F 32.0 °F 87% 29.76 in 2.5 mi ENE 21.9 mph 28.8 mph 0.02 in Snow Light Snow
10:37 PM 33.8 °F 24.3 °F 32.0 °F 93% 29.76 in 1.2 mi NE 13.8 mph - 0.05 in Snow Light Snow
10:53 PM 33.1 °F 22.6 °F 32.0 °F 96% 29.77 in 0.5 mi NNE 16.1 mph - 0.08 in Fog , Snow Snow
11:22 PM 32.0 °F 20.1 °F 30.2 °F 93% 29.72 in 0.5 mi NNE 19.6 mph - 0.07 in Fog , Snow Snow
11:53 PM 32.0 °F 20.1 °F 30.9 °F 96% 29.71 in 0.8 mi NNE 19.6 mph - 0.11 in Snow Light Snow